SCP
0 0 0 0 0 0 0 0 0 0 0 0 0 0 0 0 0 0 0 0 0 0 0 0 0 0 0 0 0 0 0 0 0 0 0 0 0 0 0 0 0 0 0
0 0 0 0 0 0 0 0 0 0 0 0 0 0 0 0 0 0 0 0 0 0 0 0 0 0 0 0 0 0 0 0 0 0 0 0 0 0 0 0 0 0 0
0 0 0 0 0 0 0 0 0 0 0 0 0 0 0 0 0 0 0 0 0 0 0 0 0 0 0 0 0 0 0 0 0 0 0 0 0 0 0 0 0 0 0
0 0 0 0 0 0 0 0 0 0 0 0 0 0 0 0 0 0 0 0 0 0 0 0 0 0 0 0 0 0 0 0 0 0 0 0 0 0 0 0 0 0 0
0 0 0 0 0 0 0 0 0 0 0 0 0 0 0 0 0 0 0 0 0 0 0 0 0 0 0 0 0 0 0 0 0 0 0 0 0 0 0 0 0 0 0
0 0 0 0 0 0 0 0 0 0 0 0 0 0 0 0 0 0 0 0 0 0 0 0 0 0 0 0 0 0 0 0 0 0 0 0 0 0 0 0 0 0 0
0 0 0 0 0 0 0 0 0 0 0 0 0 0 0 0 0 0 0 0 0 0 0 0 0 0 0 0 0 0 0 0 0 0 0 0 0 0 0 0 0 0 0
0 0 0 0 0 0 0 0 0 0 0 0 0 0 0 0 0 0 0 0 0 0 0 0 0 0 0 0 0 0 0 0 0 0 0 0 0 0 0 0 0 0 0
0 0 0 0 0 0 0 0 0 0 0 0 0 0 0 0 0 0 0 0 0 0 0 0 0 0 0 0 0 0 0 0 0 0 0 0 0 0 0 0 0 0 0
0 0 0 0 0 0 0 0 0 0 0 0 0 0 0 0 0 0 0 0 0 0 0 0 0 0 0 0 0 0 0 0 0 0 0 0 0 0 0 0 0 0 0
0 0 0 0 0 0 0 0 0 0 0 0 0 0 0 0 0 0 0 0 0 0 0 0 0 0 0 0 0 0 0 0 0 0 0 0 0 0 0 0 0 0 0
0 0 0 0 0 0 0 0 0 0 0 0 0 0 0 0 0 0 0 0 0 0 0 0 0 0 0 0 0 0 0 0 0 0 0 0 0 0 0 0 0 0 0
0 0 0 0 0 0 0 0 0 0 0 0 0 0 0 0 0 0 0 0 0 0 0 0 0 0 0 0 0 0 0 0 0 0 0 0 0 0 0 0 0 0 0
0 0 0 0 0 0 0 0 0 0 0 0 0 0 0 0 0 0 0 0 0 0 0 0 0 0 0 0 0 0 0 0 0 0 0 0 0 0 0 0 0 0 0
0 0 0 0 0 0 0 0 0 0 0 0 0 0 0 0 0 0 0 0 0 0 0 0 0 0 0 0 0 0 0 0 0 0 0 0 0 0 0 0 0 0 0
0 0 0 0 0 0 0 0 0 0 0 0 0 0 0 0 0 0 0 0 0 0 0 0 0 0 0 0 0 0 0 0 0 0 0 0 0 0 0 0 0 0 0
0 0 0 0 0 0 0 0 0 0 0 0 0 0 0 0 0 0 0 0 0 0 0 0 0 0 0 0 0 0 0 0 0 0 0 0 0 0 0 0 0 0 0
0 0 0 0 0 0 0 0 0 0 0 0 0 0 0 0 0 0 0 0 0 0 0 0 0 0 0 0 0 0 0 0 0 0 0 0 0 0 0 0 0 0 0
0 0 0 0 0 0 0 0 0 0 0 0 0 0 0 0 0 0 0 0 0 0 0 0 0 0 0 0 0 0 0 0 0 0 0 0 0 0 0 0 0 0 0
0 0 0 0 0 0 0 0 0 0 0 0 0 0 0 0 0 0 0 0 0 0 0 0 0 0 0 0 0 0 0 0 0 0 0 0 0 0 0 0 0 0 0
0 0 0 0 0 0 0 0 0 0 0 0 0 0 0 0 0 0 0 0 0 0 0 0 0 0 0 0 0 0 0 0 0 0 0 0 0 0 0 0 0 0 0
0 0 0 0 0 0 0 0 0 0 0 0 0 0 0 0 0 0 0 0 0 0 0 0 0 0 0 0 0 0 0 0 0 0 0 0 0 0 0 0 0 0 0
0 0 0 0 0 0 0 0 0 0 0 0 0 0 0 0 0 0 0 0 0 0 0 0 0 0 0 0 0 0 0 0 0 0 0 0 0 0 0 0 0 0 0
0 0 0 0 0 0 0 0 0 0 0 0 0 0 0 0 0 0 0 0 0 0 0 0 0 0 0 0 0 0 0 0 0 0 0 0 0 0 0 0 0 0 0
0 0 0 0 0 0 0 0 0 0 0 0 0 0 0 0 0 0 0 0 0 0 0 0 0 0 0 0 0 0 0 0 0 0 0 0 0 0 0 0 0 0 0
0 0 0 0 0 0 0 0 0 0 0 0 0 0 0 0 0 0 0 0 0 0 0 0 0 0 0 0 0 0 0 0 0 0 0 0 0 0 0 0 0 0 0
Wind_Speed
1 1 1 1 1 1 2 2 2 2 1 1 2 2 2 2 2 2 2 5 5 6 7 8 8 9 9 9 9 9 9 10 9 9 9 10 10 10 10 9 9 9 9
1 1 1 1 1 1 2 2 2 2 1 1 1 2 2 2 2 2 2 3 5 6 6 7 8 8 9 10 10 10 9 10 9 9 10 10 10 10 10 10 10 9 9
2 2 1 1 1 2 2 2 2 2 2 1 1 2 2 2 2 2 2 2 2 5 6 7 8 8 9 10 11 10 10 10 10 10 10 10 10 10 10 10 10 10 9
2 2 1 1 2 2 2 2 2 1 1 1 1 1 1 1 2 2 2 2 2 3 5 7 8 8 10 10 11 11 11 11 11 11 11 10 10 10 10 11 11 10 10
2 2 1 1 1 2 2 2 2 2 2 1 1 1 1 1 2 2 3 3 3 3 3 5 7 8 9 9 10 11 11 12 11 12 12 12 12 11 11 11 11 11 11
2 2 2 1 2 2 2 1 2 2 1 1 1 1 1 1 1 2 3 2 3 3 3 4 3 4 7 8 9 10 11 12 12 12 12 12 12 11 11 11 12 12 12
2 2 2 1 2 2 2 2 2 2 1 1 1 1 1 1 1 1 2 2 3 3 3 3 3 3 3 6 7 9 11 12 12 12 12 12 12 12 12 12 12 11 12
2 2 2 2 2 2 2 2 2 2 1 1 1 1 1 2 1 1 1 2 2 2 3 3 3 4 4 3 4 7 8 10 10 11 11 11 12 12 12 12 12 11 12
1 2 2 2 2 2 2 2 2 3 2 1 1 2 2 1 1 1 1 1 1 2 3 3 4 4 4 3 4 5 7 7 9 10 10 10 10 10 12 12 12 12 12
1 2 2 2 2 2 2 2 2 2 3 1 1 1 1 2 1 1 1 1 1 2 3 3 3 3 3 3 3 4 6 7 8 10 10 10 10 10 11 12 12 12 12
0 1 2 2 2 2 2 2 2 2 2 2 2 1 1 1 1 1 2 2 1 1 2 2 2 2 2 2 3 4 5 6 6 8 9 9 9 9 9 10 10 10 10
1 1 1 2 2 2 2 2 2 3 2 2 2 2 2 2 2 2 2 2 2 2 2 1 2 2 2 2 3 3 4 4 5 5 6 7 7 8 8 9 9 9 9
1 1 1 1 2 2 2 2 2 2 2 2 2 2 2 2 2 2 2 2 2 2 2 1 1 1 1 1 2 3 3 3 3 4 4 4 5 5 6 6 7 7 7
2 1 1 1 2 2 2 2 2 2 2 2 3 2 2 2 2 2 2 2 1 2 1 2 1 1 1 1 2 2 2 2 2 2 3 3 4 4 5 5 5 5 5
1 1 1 1 1 1 2 2 2 2 2 2 2 2 2 2 2 2 2 2 2 2 3 2 1 1 1 1 2 1 2 2 1 1 2 2 3 4 4 4 4 4 4
1 1 1 1 1 1 1 2 2 2 2 2 2 2 2 2 1 1 2 2 2 3 3 2 2 2 1 1 1 1 2 2 1 1 1 1 3 3 3 3 3 4 4
2 2 1 1 1 1 1 1 2 2 2 2 2 2 2 2 1 1 1 1 2 2 3 2 1 1 1 1 2 1 1 1 1 1 1 0 1 3 3 4 3 4 4
2 2 2 2 2 1 1 1 2 2 2 2 2 2 2 1 2 2 1 2 2 2 3 3 2 1 1 1 2 2 2 1 1 2 1 1 1 2 3 4 4 4 4
2 2 2 2 2 2 1 2 2 2 2 2 2 2 3 2 2 2 2 2 2 1 2 2 2 1 1 1 1 1 2 2 1 2 1 1 1 2 3 3 3 4 4
2 2 2 2 2 2 2 2 2 2 3 3 3 3 3 3 3 3 2 2 2 1 1 1 1 1 1 1 0 1 1 1 1 2 2 2 2 1 2 3 3 3 3
3 2 2 2 2 3 3 3 3 3 3 3 3 3 3 3 3 3 2 2 2 2 2 1 1 1 1 1 1 1 1 1 1 1 1 1 1 1 1 1 2 3 3
3 2 3 3 3 3 3 4 3 3 3 3 3 3 3 3 3 3 4 3 4 4 4 3 2 3 3 3 2 2 1 1 1 0 0 1 0 0 0 0 1 2 3
3 3 3 3 4 4 4 4 5 4 3 3 3 3 3 3 3 2 3 3 4 4 5 5 4 4 4 4 3 2 2 2 2 1 0 1 1 1 1 0 2 2 2
3 3 3 4 4 4 4 4 4 4 3 4 4 4 3 3 3 2 2 2 3 3 5 4 5 5 4 3 4 3 3 1 0 0 1 1 1 1 1 0 1 2 3
3 3 3 4 4 4 4 5 4 3 3 4 4 4 4 4 4 3 3 3 3 3 3 3 4 3 3 3 4 3 3 2 1 1 1 1 1 1 1 1 1 2 3
3 3 3 3 4 4 4 5 5 3 3 3 3 3 4 4 4 4 3 3 3 3 2 1 1 1 2 3 5 5 4 3 2 2 2 2 1 1 1 1 1 1 2
Wind_Direction
108 93 88 95 108 113 121 123 129 131 141 156 159 159 172 181 181 186 203 210 212 210 212 214 212 212 210 207 207 208 208 208 207 204 204 205 206 205 205 207 202 204 205
119 115 112 108 103 123 133 142 154 151 150 159 172 176 181 186 183 195 209 224 225 221 220 220 218 220 218 213 211 212 213 213 213 210 208 210 210 209 210 211 210 209 210
139 139 135 137 140 130 128 129 133 135 148 158 174 184 181 186 190 201 208 218 234 234 231 229 226 224 226 220 215 215 219 219 218 218 215 215 215 215 214 214 215 213 212
141 136 141 158 144 130 132 135 135 126 134 146 177 198 172 182 207 207 208 215 224 238 240 237 235 232 231 226 221 221 222 222 221 221 219 218 218 219 219 218 218 216 214
139 137 145 150 133 128 133 149 132 138 143 155 180 181 183 197 215 221 220 221 221 230 244 252 247 242 236 236 232 229 228 227 226 225 223 223 223 222 220 221 221 220 219
147 144 144 150 137 131 129 130 137 128 138 161 159 131 226 223 211 220 232 229 227 232 240 251 252 249 242 244 240 236 234 231 230 231 231 230 230 226 222 221 223 225 224
158 153 153 150 142 145 153 143 130 122 100 123 101 39 352 313 233 231 228 230 238 240 240 244 246 251 251 249 248 244 242 240 237 234 233 234 234 230 222 224 226 226 225
172 165 164 166 154 146 142 142 134 129 133 140 136 104 359 344 334 267 226 227 240 244 246 247 244 245 248 248 255 250 250 247 245 240 238 235 234 228 225 226 227 226 227
183 176 178 174 164 158 171 174 159 157 162 170 159 152 155 239 302 319 274 246 241 241 248 249 245 246 244 241 247 248 247 248 249 246 243 238 234 230 230 230 229 229 229
182 181 170 161 162 165 177 194 169 161 156 179 187 189 183 170 177 304 316 300 271 260 259 257 256 252 246 241 244 245 246 246 247 248 243 238 236 234 234 233 230 230 226
251 191 164 165 179 183 189 183 158 162 169 182 187 177 171 160 172 195 276 304 312 282 270 267 263 259 254 248 251 256 254 249 245 245 242 238 236 234 232 232 233 228 226
334 291 189 185 189 191 192 189 180 176 185 191 195 191 182 184 191 189 226 268 292 298 289 276 265 264 268 262 266 274 263 255 253 250 246 240 237 236 235 234 233 230 228
272 276 239 202 198 200 195 183 181 199 197 195 206 215 215 219 196 187 199 235 266 290 300 290 280 272 275 269 278 289 281 272 269 256 250 244 240 238 235 232 230 225 224
226 230 211 209 209 202 198 177 186 217 209 214 226 220 224 230 210 203 197 196 252 285 282 282 311 279 277 274 290 280 287 283 263 256 246 242 237 232 228 222 214 209 214
218 201 210 214 205 187 185 171 183 218 214 221 227 218 222 238 221 220 210 199 199 251 279 274 281 301 286 276 297 295 293 318 287 271 248 237 232 227 220 208 192 188 191
212 183 189 205 228 219 188 182 200 211 200 227 216 215 230 242 232 221 216 218 210 218 253 267 261 287 300 305 345 317 319 341 344 324 284 233 217 212 198 183 169 166 167
188 191 202 200 218 243 228 202 221 205 205 232 232 221 242 238 235 232 219 211 213 209 236 272 255 276 289 318 346 350 353 338 333 353 342 262 183 178 177 171 163 160 159
199 197 197 197 217 228 223 219 236 228 212 231 247 240 257 245 246 243 223 223 223 215 214 252 270 274 284 318 345 351 351 352 344 7 23 71 142 157 166 167 165 161 159
200 201 190 197 214 222 220 226 228 234 222 223 233 238 248 237 249 243 228 225 227 216 208 220 262 273 292 327 354 357 355 352 345 354 7 45 106 161 153 148 153 159 163
195 207 207 210 218 222 225 228 229 238 241 238 237 239 240 227 235 239 232 228 219 206 194 205 240 265 266 294 301 321 333 343 340 349 2 13 23 90 128 136 145 153 166
203 210 211 226 232 228 236 230 228 232 233 243 250 250 247 236 233 231 233 222 208 205 194 199 222 234 233 224 225 224 262 301 320 328 339 5 32 58 72 125 161 166 168
210 211 220 224 234 246 251 232 225 239 239 242 255 263 258 247 242 234 231 220 206 205 202 199 215 224 234 226 208 198 204 280 299 351 5 336 357 303 297 192 164 170 172
214 221 230 227 234 248 247 242 235 234 242 244 249 258 266 265 246 240 236 225 226 228 212 202 212 223 224 217 197 197 200 213 243 238 177 302 305 293 274 196 161 167 162
212 223 230 232 239 255 247 241 236 235 247 248 245 245 251 264 252 231 234 238 242 242 230 220 225 231 229 213 195 195 195 189 290 234 182 212 252 265 288 225 176 176 174
214 224 231 234 242 259 248 242 230 236 247 255 252 246 242 250 248 221 213 237 260 265 241 223 226 230 219 201 175 156 157 161 225 242 194 196 218 275 287 266 212 194 187
218 224 243 245 246 256 250 240 226 232 245 256 257 250 239 235 235 209 206 214 242 258 248 225 225 224 214 201 186 186 184 184 197 227 191 188 188 197 261 255 232 199 198